Weather History for Valparaiso, IN

Change the Weather History Date:

Tuesday, January 21, 2014

  Actual Average Record
Temperature  
Mean Temperature 9 °F 23 °F  
Max Temperature 18 °F 31 °F 62 °F (1999)
Min Temperature -1 °F 16 °F -7 °F (2000)
Degree Days  
Heating Degree Days 56 42  
Month to date heating degree days 835 873  
Since 1 July heating degree days 3518 3275  
Cooling Degree Days 0 0  
Month to date cooling degree days 0 0  
Year to date cooling degree days 0 0  
Moisture  
Dew Point 3 °F    
Average Humidity 76    
Maximum Humidity 95    
Minimum Humidity 52    
Precipitation  
Precipitation T in 0.06 in 0.15 in (2010)
Month to date precipitation 0.93 1.15  
Year to date precipitation 0.93 1.15  
Sea Level Pressure  
Sea Level Pressure 30.20 in    
Wind  
Wind Speed 8 mph (WSW)    
Max Wind Speed 18 mph    
Max Gust Speed 28 mph    
Visibility 7 miles    
Events Snow    
T = Trace of Precipitation, MM = Missing Value Source: NWS Daily Summary

Daily Weather History Graph

Daily Weather History Graph

Search for Another Location

Airport:

Trip Planner

Search our weather history database for the weather conditions in past years. The results will help you decide how hot, cold, wet, or windy it might be!

Date:

Astronomy

Jan. 21, 2014 Rise Set
Actual Time 7:08 AM CST 4:50 PM CST
Civil Twilight 6:38 AM CST 5:20 PM CST
Nautical Twilight 6:04 AM CST 5:54 PM CST
Astronomical Twilight 5:31 AM CST 6:27 PM CST
Moon 10:27 PM CST (1/21) 9:34 AM CST (1/21)
Length of Visible Light 10h 41m
Length of Day
9h 41m
Waning Gibbous, 74% of the Moon is Illuminated
Jan 21
Waning Gibbous
Jan 23
Last Quarter
Jan 30
New
Feb 6
First Quarter
Feb 14
Full

Hourly Weather History & Observations

Time (CST) Temp. Windchill Dew Point Humidity Pressure Visibility Wind Dir Wind Speed Gust Speed Precip Events Conditions
12:53 AM 14.0 °F -2.5 °F 7.0 °F 74% 30.04 in 10.0 mi NNE 17.3 mph 27.6 mph N/A   Overcast
1:53 AM 14.0 °F -0.2 °F 3.0 °F 62% 30.07 in 10.0 mi NNE 12.7 mph - N/A   Overcast
2:53 AM 12.0 °F -3.4 °F 1.9 °F 64% 30.11 in 10.0 mi NE 13.8 mph 20.7 mph N/A   Overcast
3:53 AM 10.9 °F -3.4 °F -0.0 °F 61% 30.14 in 10.0 mi NE 11.5 mph 20.7 mph N/A   Mostly Cloudy
4:53 AM 10.0 °F -3.7 °F -0.9 °F 61% 30.17 in 10.0 mi NE 10.4 mph - N/A   Overcast
5:53 AM 8.1 °F -5.3 °F -2.9 °F 61% 30.18 in 10.0 mi NE 9.2 mph - N/A   Partly Cloudy
6:53 AM 7.0 °F -6.6 °F -2.9 °F 64% 30.21 in 10.0 mi NE 9.2 mph - N/A   Clear
7:53 AM 7.0 °F -4.5 °F -4.0 °F 61% 30.23 in 10.0 mi NE 6.9 mph - N/A   Clear
8:53 AM 9.0 °F -3.2 °F -2.9 °F 59% 30.26 in 10.0 mi NE 8.1 mph - N/A   Clear
9:53 AM 10.9 °F 0.2 °F -2.9 °F 54% 30.27 in 10.0 mi ENE 6.9 mph - N/A   Clear
10:53 AM 12.9 °F 5.2 °F -0.9 °F 54% 30.27 in 10.0 mi East 4.6 mph - N/A   Mostly Cloudy
11:53 AM 14.0 °F 3.9 °F -0.9 °F 52% 30.25 in 10.0 mi ENE 6.9 mph - N/A   Overcast
12:53 PM 14.0 °F 8.2 °F -0.9 °F 52% 30.25 in 10.0 mi Variable 3.5 mph - N/A   Overcast
1:53 PM 12.9 °F 3.8 °F 5.0 °F 71% 30.23 in 10.0 mi SW 5.8 mph - N/A   Overcast
2:24 PM 12.9 °F 6.9 °F 6.1 °F 74% 30.19 in 2.5 mi Variable 3.5 mph - 0.00 in Snow Light Snow
2:37 PM 12.0 °F 5.9 °F 7.0 °F 80% 30.19 in 1.5 mi SW 3.5 mph - 0.00 in Snow Light Snow
2:53 PM 12.9 °F 2.6 °F 8.1 °F 81% 30.24 in 1.0 mi SW 6.9 mph - 0.00 in Snow Light Snow
3:20 PM 12.9 °F 5.2 °F 7.0 °F 77% 30.20 in 3.0 mi West 4.6 mph - 0.00 in Snow Light Snow
3:43 PM 12.0 °F 5.9 °F 7.0 °F 80% 30.20 in 9.0 mi West 3.5 mph - 0.00 in   Overcast
3:53 PM 12.0 °F - 7.0 °F 80% 30.25 in 8.0 mi Calm Calm - 0.00 in   Overcast
4:18 PM 12.0 °F -0.4 °F 8.1 °F 84% 30.20 in 1.8 mi West 9.2 mph - 0.00 in Snow Light Snow
4:40 PM 10.9 °F 4.7 °F 8.1 °F 88% 30.20 in 3.0 mi WSW 3.5 mph - 0.00 in Snow Light Snow
4:53 PM 10.0 °F - 8.1 °F 92% 30.25 in 8.0 mi Calm Calm - 0.00 in   Overcast
5:15 PM 10.0 °F - 8.1 °F 92% 30.20 in 10.0 mi Calm Calm - N/A   Overcast
5:33 PM 10.0 °F - 8.1 °F 92% 30.20 in 5.0 mi Calm Calm - 0.00 in Snow Light Snow
5:53 PM 10.0 °F 3.6 °F 8.1 °F 92% 30.25 in 5.0 mi South 3.5 mph - 0.00 in Snow Light Snow
6:05 PM 10.0 °F 1.8 °F 8.1 °F 92% 30.19 in 3.0 mi South 4.6 mph - 0.00 in Snow Light Snow
6:14 PM 10.0 °F 1.8 °F 9.0 °F 95% 30.19 in 2.0 mi SSW 4.6 mph - 0.00 in Snow Light Snow
6:27 PM 10.9 °F 2.9 °F 8.1 °F 88% 30.20 in 4.0 mi WSW 4.6 mph - 0.00 in Snow Light Snow
6:53 PM 10.9 °F 0.2 °F 8.1 °F 88% 30.24 in 4.0 mi SW 6.9 mph - 0.00 in Snow Light Snow
7:15 PM 10.9 °F 1.4 °F 8.1 °F 88% 30.19 in 2.5 mi WSW 5.8 mph - 0.00 in Snow Light Snow
7:31 PM 10.0 °F -3.7 °F 8.1 °F 92% 30.18 in 1.5 mi West 10.4 mph - 0.00 in Snow Light Snow
7:53 PM 9.0 °F -2.2 °F 7.0 °F 92% 30.24 in 2.0 mi West 6.9 mph - 0.00 in Snow Light Snow
8:17 PM 9.0 °F -4.2 °F 5.0 °F 84% 30.18 in 3.0 mi West 9.2 mph - 0.00 in Snow Light Snow
8:44 PM 9.0 °F -2.2 °F 1.9 °F 73% 30.18 in 8.0 mi WSW 6.9 mph - 0.00 in   Overcast
8:53 PM 9.0 °F -2.2 °F 1.0 °F 70% 30.23 in 10.0 mi WSW 6.9 mph - 0.00 in   Overcast
9:53 PM 3.0 °F -11.5 °F -2.0 °F 80% 30.24 in 10.0 mi SW 9.2 mph - N/A   Overcast
10:09 PM 1.9 °F -10.6 °F -2.9 °F 80% 30.18 in 10.0 mi SW 6.9 mph - N/A   Overcast
10:48 PM -0.4 °F -13.4 °F -5.8 °F 78% 30.17 in 10.0 mi SW 6.9 mph - N/A   Scattered Clouds
10:53 PM -0.0 °F -13.0 °F -4.0 °F 83% 30.23 in 10.0 mi SW 6.9 mph - N/A   Partly Cloudy
11:53 PM -0.9 °F -15.3 °F -5.1 °F 83% 30.23 in 10.0 mi West 8.1 mph - N/A   Clear